TimeCST,TemperatureF,Dew PointF,Humidity,Sea Level PressureIn,VisibilityMPH,Wind Direction,Wind SpeedMPH,Gust SpeedMPH,PrecipitationIn,Events,Conditions,WindDirDegrees,DateUTC
12:34 AM,12.2,5.0,73,29.70,10.0,North,12.7,-,N/A,,Mostly Cloudy,10,2010-12-31 06:34:00
12:54 AM,12.0,5.0,73,29.75,10.0,North,16.1,-,N/A,,Overcast,360,2010-12-31 06:54:00
1:47 AM,12.2,5.0,73,29.70,10.0,North,15.0,-,N/A,,Overcast,10,2010-12-31 07:47:00
1:54 AM,12.0,5.0,73,29.73,10.0,North,18.4,-,N/A,,Overcast,10,2010-12-31 07:54:00
2:54 AM,12.0,6.1,77,29.75,10.0,North,16.1,-,N/A,,Overcast,360,2010-12-31 08:54:00
3:54 AM,12.0,5.0,73,29.72,10.0,NNE,13.8,-,N/A,,Overcast,20,2010-12-31 09:54:00
4:54 AM,10.9,6.1,81,29.69,10.0,NNE,17.3,-,N/A,,Overcast,20,2010-12-31 10:54:00
5:26 AM,12.2,6.8,79,29.66,9.0,NNE,15.0,-,N/A,,Overcast,30,2010-12-31 11:26:00
5:48 AM,10.4,6.8,85,29.63,1.8,NNE,16.1,-,0.00,Snow,Light Snow,20,2010-12-31 11:48:00
5:54 AM,10.9,7.0,84,29.70,1.2,North,13.8,-,0.01,Snow,Light Snow,10,2010-12-31 11:54:00
6:52 AM,10.4,6.8,85,29.59,2.0,NNE,17.3,-,0.03,Snow,Blowing Snow,30,2010-12-31 12:52:00
6:54 AM,10.9,7.0,84,29.64,2.0,NE,16.1,-,0.03,Snow,Blowing Snow,40,2010-12-31 12:54:00
7:21 AM,10.4,6.8,85,29.61,3.0,NNE,9.2,-,0.02,Snow,Light Snow,30,2010-12-31 13:21:00
7:38 AM,10.4,6.8,85,29.52,3.0,NE,20.7,27.6,0.02,Snow,Light Snow,40,2010-12-31 13:38:00
7:45 AM,10.4,6.8,85,29.54,2.0,NE,15.0,27.6,0.03,Snow,Light Snow,40,2010-12-31 13:45:00
7:54 AM,10.9,7.0,84,29.62,2.0,NNE,9.2,-,0.03,Snow,Light Snow,30,2010-12-31 13:54:00
8:18 AM,10.4,8.6,92,29.58,2.0,North,10.4,-,0.00,Snow,Light Snow,10,2010-12-31 14:18:00
8:30 AM,12.2,8.6,85,29.60,1.2,NNW,9.2,-,0.00,Snow,Light Snow,340,2010-12-31 14:30:00
8:54 AM,12.0,9.0,88,29.63,1.0,North,9.2,-,0.00,Snow,Light Snow,10,2010-12-31 14:54:00
9:06 AM,12.2,8.6,85,29.58,4.0,North,9.2,-,0.00,,Overcast,10,2010-12-31 15:06:00
9:48 AM,12.2,8.6,85,29.66,4.0,West,15.0,-,0.00,Snow,Light Snow,260,2010-12-31 15:48:00
9:54 AM,12.2,8.6,85,29.65,1.8,West,12.7,-,N/A,Snow,Light Snow,270,2010-12-31 15:54:00
10:00 AM,12.2,8.6,85,29.64,1.8,WNW,12.7,-,0.00,Snow,Light Snow,290,2010-12-31 16:00:00
10:15 AM,12.2,8.6,85,29.63,0.8,WNW,8.1,-,0.00,Snow,Light Snow,300,2010-12-31 16:15:00
10:27 AM,12.2,8.6,85,29.66,1.0,West,10.4,-,0.01,Snow,Light Snow,280,2010-12-31 16:27:00
10:39 AM,12.2,8.6,85,29.66,2.5,West,10.4,-,0.01,Snow,Light Snow,280,2010-12-31 16:39:00
10:54 AM,12.9,8.1,81,29.72,4.0,WNW,11.5,-,0.01,Snow,Light Snow,290,2010-12-31 16:54:00
11:54 AM,12.9,6.1,74,29.70,9.0,WNW,11.5,-,0.00,,Overcast,290,2010-12-31 17:54:00
12:54 PM,10.4,3.2,73,29.65,9.0,WNW,13.8,-,N/A,,Overcast,290,2010-12-31 18:54:00
1:54 PM,10.9,1.9,67,29.73,10.0,West,12.7,-,N/A,,Overcast,280,2010-12-31 19:54:00
2:54 PM,10.9,1.9,67,29.75,10.0,West,15.0,-,N/A,,Overcast,260,2010-12-31 20:54:00
3:18 PM,10.4,1.4,67,29.70,9.0,West,17.3,26.5,N/A,,Overcast,260,2010-12-31 21:18:00
3:54 PM,10.0,1.0,67,29.80,9.0,WSW,21.9,25.3,N/A,,Overcast,250,2010-12-31 21:54:00
4:54 PM,9.0,-2.0,61,29.83,10.0,WSW,18.4,-,N/A,,Partly Cloudy,250,2010-12-31 22:54:00
5:54 PM,7.0,-2.0,67,29.85,10.0,WSW,11.5,-,N/A,,Clear,250,2010-12-31 23:54:00
6:54 PM,6.1,-7.1,55,29.86,10.0,WSW,23.0,31.1,N/A,,Clear,250,2011-01-01 00:54:00
7:54 PM,5.0,-7.1,58,29.89,10.0,WSW,19.6,27.6,N/A,,Clear,240,2011-01-01 01:54:00
8:54 PM,5.0,-7.1,58,29.88,10.0,WSW,18.4,24.2,N/A,,Clear,240,2011-01-01 02:54:00
9:54 PM,5.0,-7.1,58,29.90,10.0,WSW,19.6,28.8,N/A,,Clear,250,2011-01-01 03:54:00
10:54 PM,5.0,-5.1,63,29.92,10.0,WSW,15.0,-,N/A,,Clear,250,2011-01-01 04:54:00
11:54 PM,6.1,-4.0,63,29.93,10.0,WSW,16.1,-,N/A,,Clear,250,2011-01-01 05:54:00